Wind_Speed
31 31 32 32 32 33 33 34 34 34 35 35 35 35 34 35 35 36 36 36 35 35 35 36 36 36 36 36 37 37 38 38 38 38 38 39 40 41 42 42 43 43 43 44
31 31 30 31 32 32 33 34 33 34 34 35 35 35 35 34 35 36 36 36 35 35 35 35 35 35 35 36 36 37 37 38 38 39 39 40 41 41 42 43 43 44 44 44
29 29 29 30 30 31 32 32 31 32 32 34 35 35 34 34 34 35 36 36 36 36 35 35 35 35 35 36 36 36 37 37 38 39 40 41 42 42 42 43 43 43 44 44
28 28 29 29 30 30 30 30 31 31 32 33 34 35 33 33 33 34 34 35 36 36 36 36 35 35 36 36 36 36 36 37 37 38 39 40 41 42 43 43 43 44 44 44
27 28 28 28 28 28 28 29 30 30 31 32 33 35 33 33 32 32 32 33 34 35 36 36 35 35 36 36 37 36 36 37 37 37 37 38 40 42 43 44 44 44 44 45
26 27 27 27 27 27 28 28 29 30 31 32 31 33 33 31 31 31 31 31 32 33 34 35 35 35 35 35 36 37 37 37 37 37 37 37 38 40 42 43 45 45 44 45
25 25 26 26 27 26 27 28 29 30 30 31 30 32 32 30 29 29 29 30 30 31 32 33 33 33 34 35 35 36 37 37 36 37 38 38 38 39 40 41 42 43 44 45
25 24 25 25 26 26 26 27 28 28 29 30 29 30 29 27 27 27 27 28 29 30 31 31 32 33 33 34 35 35 36 36 37 37 37 38 39 39 40 40 41 42 43 44
25 24 24 24 25 25 26 26 26 26 28 28 29 29 28 26 25 24 25 26 27 28 29 30 31 32 33 34 35 36 36 36 37 38 38 39 40 40 40 40 41 42 42 43
24 24 23 23 24 25 25 25 25 25 26 27 28 28 28 25 24 24 25 25 26 27 29 31 32 33 33 35 36 36 37 37 37 38 38 39 39 40 40 41 41 41 41 41
24 24 24 23 23 24 25 25 25 25 26 27 28 28 27 27 26 26 27 27 27 28 29 30 31 33 34 34 35 36 36 36 36 37 38 39 39 40 40 40 40 40 41 41
23 25 24 24 23 23 24 25 26 26 27 28 29 29 26 27 27 27 27 28 29 29 30 31 32 32 33 34 34 35 35 35 36 36 37 37 38 38 39 39 39 39 40 40
23 24 24 24 24 24 24 25 25 26 28 28 29 29 27 27 27 27 27 28 28 28 29 30 31 31 31 31 31 31 32 33 33 34 35 36 37 38 39 39 40 40 40 40
23 24 24 25 25 25 25 25 25 26 28 28 28 28 26 25 25 26 27 27 27 28 28 29 30 30 30 29 29 30 31 31 32 33 33 34 35 36 37 38 39 40 40 41
23 24 24 25 26 26 26 26 25 26 26 27 26 26 24 25 25 25 26 26 27 28 28 28 28 28 28 28 28 28 29 30 31 31 32 32 33 35 36 37 38 39 39 40
23 24 25 25 26 26 26 25 24 25 26 26 25 24 23 24 25 25 25 26 26 26 26 26 26 27 27 28 27 28 28 29 29 30 31 31 32 33 33 35 36 37 38 38
24 25 26 26 26 26 25 23 23 23 23 24 24 24 23 24 24 24 25 26 26 26 25 25 25 26 27 28 28 28 28 28 28 29 30 30 31 31 31 32 33 33 34 35
25 25 26 26 26 25 23 21 21 21 21 22 23 23 23 23 23 24 25 26 26 25 24 25 25 25 26 27 27 27 28 28 28 29 29 30 30 30 30 30 30 31 31 32
25 24 25 24 24 24 21 19 19 20 19 19 21 21 22 22 23 24 25 25 25 24 25 25 25 26 26 26 27 27 27 27 27 27 27 27 27 27 28 29 29 29 29 30
24 24 24 24 24 23 20 19 19 20 19 19 20 21 22 22 23 23 24 24 25 25 25 25 26 26 25 25 25 25 25 25 25 25 25 25 25 25 26 27 27 28 28 28
24 24 23 23 23 22 21 20 20 20 20 20 21 21 22 22 23 22 23 23 24 24 24 24 24 24 24 24 24 24 24 24 24 24 23 24 24 24 25 25 26 27 27 27
23 23 23 23 23 21 20 20 20 21 21 21 21 22 22 22 23 23 23 23 23 23 23 23 22 22 22 22 22 23 23 22 22 22 23 23 23 23 23 24 25 25 25 26
23 23 23 22 22 21 21 20 20 21 20 20 21 22 23 23 23 23 23 22 22 22 22 21 21 21 21 21 21 21 21 21 21 22 22 22 22 23 23 23 24 24 24 24
23 23 23 22 21 21 20 20 20 20 21 21 22 22 23 22 22 22 22 22 21 21 21 21 20 20 20 20 20 21 21 22 22 22 21 21 22 22 22 22 22 23 22 22
21 21 22 22 20 19 19 20 21 21 21 21 22 22 22 21 21 21 21 21 22 21 21 21 20 20 20 20 20 21 21 21 21 21 21 21 21 21 21 21 21 20 20 20
19 19 20 20 20 19 19 19 20 21 20 21 21 20 19 19 19 19 20 20 21 21 21 20 19 19 19 20 20 21 21 21 21 21 20 20 20 20 20 20 20 20 19 19
Wind_Direction
274 274 275 275 274 273 272 271 270 269 268 267 266 264 263 263 262 260 258 258 257 257 258 258 259 260 260 259 258 258 258 257 256 256 255 255 254 254 254 254 254 254 254 254
277 276 277 276 275 274 273 272 271 268 266 266 265 264 263 263 262 260 258 258 257 256 257 259 260 260 260 259 258 258 258 258 256 256 256 256 255 254 255 255 255 255 255 256
279 279 279 277 277 275 273 272 270 268 265 265 267 265 265 265 263 260 258 257 257 257 257 258 259 259 258 258 258 259 258 258 258 257 257 257 256 256 255 255 255 256 255 256
280 279 280 278 278 276 274 272 270 269 268 268 268 269 267 268 266 263 259 257 257 257 257 258 258 258 258 258 258 258 257 257 258 259 258 257 256 256 256 256 256 256 256 256
280 280 280 279 279 276 274 272 271 269 269 269 270 271 270 270 269 265 261 259 257 256 257 257 257 257 258 257 257 258 257 257 258 258 258 258 257 257 257 258 258 257 257 257
281 280 280 280 279 277 275 274 272 270 270 271 272 273 272 272 271 267 263 260 258 256 256 257 258 259 259 258 258 258 258 258 257 257 257 258 259 258 258 259 259 258 258 258
281 280 279 279 278 277 276 275 273 273 272 274 275 274 275 273 270 266 264 262 260 257 256 257 259 260 260 260 260 259 259 259 258 257 257 258 259 260 260 260 259 258 257 258
283 281 281 281 279 278 278 277 277 276 276 276 275 274 275 274 268 265 264 263 261 258 257 258 259 260 261 261 261 261 261 260 260 259 260 260 260 260 260 260 259 259 259 258
285 284 284 285 284 281 279 279 279 277 276 277 277 275 273 274 271 268 266 264 262 261 260 260 260 261 263 264 263 263 262 261 261 260 260 260 260 260 260 260 260 260 260 259
287 286 286 286 285 282 282 282 280 277 278 278 277 274 274 272 270 267 266 264 263 263 263 262 263 263 263 264 264 264 263 262 261 261 261 261 261 261 261 261 261 260 260 260
288 287 287 286 287 285 282 281 279 277 274 275 275 275 275 272 271 270 267 266 265 265 264 264 264 264 263 264 265 266 264 262 262 262 262 262 262 261 261 261 260 260 260 260
289 289 288 287 287 285 282 281 279 275 273 272 274 275 275 273 272 272 271 269 268 267 267 267 267 267 266 267 267 266 265 264 263 263 263 263 263 262 262 261 261 261 262 262
289 290 290 288 288 286 283 281 280 276 273 272 273 275 277 274 272 272 272 271 272 270 269 269 270 270 269 269 268 267 267 266 264 263 264 265 264 263 262 262 262 262 263 263
287 288 290 291 291 289 285 283 281 277 273 274 275 275 275 275 274 275 274 273 272 273 273 273 272 271 271 270 270 270 269 268 267 266 266 266 265 264 264 263 263 264 264 264
287 287 290 291 290 289 288 286 282 278 275 274 277 276 274 274 276 277 276 275 274 274 273 273 272 271 271 272 272 271 270 270 269 269 269 268 267 266 265 265 265 265 265 265
287 287 289 290 290 288 287 286 284 280 276 274 274 274 274 274 277 278 276 274 274 274 273 273 272 271 271 272 272 272 272 272 271 270 270 270 269 268 267 267 267 267 266 266
289 290 291 291 291 290 287 288 284 280 275 273 271 272 273 276 278 276 276 275 274 273 273 274 274 273 273 273 272 272 272 272 272 271 271 270 269 269 268 269 269 268 268 269
289 290 292 292 291 290 293 289 283 280 276 273 270 272 274 276 278 276 277 276 273 273 273 273 274 274 273 273 273 274 274 274 274 274 273 270 269 269 269 269 269 269 270 271
288 289 291 292 291 292 292 292 288 283 280 274 272 275 276 277 277 277 277 276 273 272 272 274 274 274 273 274 275 276 276 276 274 274 273 271 270 270 270 270 270 271 272 273
288 288 289 290 291 293 294 293 287 284 282 278 277 279 279 280 280 278 276 275 276 275 274 275 276 275 274 275 275 275 275 274 274 273 272 272 272 272 271 271 272 273 274 274
288 288 288 288 288 289 292 292 288 286 285 283 281 282 283 281 280 279 277 277 278 277 275 275 276 276 275 275 275 275 275 275 274 272 272 272 273 273 273 273 275 275 275 275
287 287 288 288 286 288 289 290 287 287 286 286 285 284 285 283 281 279 278 278 279 278 276 275 276 277 277 276 276 275 274 274 273 272 272 272 272 272 273 274 276 277 276 277
286 286 287 287 286 286 286 286 287 287 289 289 287 287 286 283 281 280 279 280 280 279 278 277 277 277 277 277 277 276 275 274 273 273 272 272 272 273 274 276 277 278 277 278
286 285 284 284 285 284 284 284 286 286 287 289 290 290 289 285 280 279 278 280 280 280 278 277 277 277 276 276 277 277 276 275 274 274 273 273 272 273 275 276 277 278 277 278
289 286 284 282 282 281 282 283 284 284 286 288 290 289 288 286 282 281 280 280 280 279 276 275 275 276 276 277 279 279 277 275 274 273 273 273 273 273 275 276 277 277 278 280
292 290 288 286 281 280 282 283 285 286 287 288 288 288 288 287 285 284 283 282 281 280 277 275 276 276 277 278 278 278 278 275 274 274 273 273 272 272 273 275 275 277 278 279
Height
5702 5702 5701 5700 5698 5697 5696 5696 5696 5696 5695 5694 5695 5696 5698 5698 5698 5699 5699 5700 5701 5702 5702 5703 5704 5704 5705 5706 5707 5708 5709 5710 5712 5713 5715 5717 5719 5720 5722 5723 5725 5727 5729 5730
5693 5693 5692 5690 5688 5687 5686 5686 5686 5686 5685 5684 5684 5686 5688 5688 5688 5689 5690 5691 5692 5693 5693 5694 5695 5696 5697 5697 5698 5699 5700 5701 5702 5704 5705 5707 5708 5710 5712 5714 5715 5717 5719 5721
5684 5684 5682 5681 5679 5678 5677 5676 5676 5676 5675 5674 5674 5676 5679 5679 5678 5679 5680 5681 5682 5683 5684 5684 5686 5687 5687 5688 5689 5690 5691 5692 5693 5694 5695 5696 5698 5700 5701 5703 5705 5707 5708 5710
5675 5675 5673 5672 5670 5669 5669 5668 5667 5667 5666 5666 5666 5664 5669 5669 5669 5669 5670 5671 5672 5673 5674 5675 5676 5677 5678 5679 5680 5681 5682 5683 5683 5684 5685 5686 5688 5689 5691 5692 5694 5696 5698 5699
5667 5666 5665 5663 5663 5661 5660 5659 5659 5658 5657 5657 5657 5655 5659 5659 5659 5660 5661 5661 5662 5663 5664 5665 5667 5668 5669 5669 5671 5671 5672 5673 5674 5675 5676 5676 5678 5679 5680 5682 5683 5685 5687 5688
5659 5658 5657 5656 5655 5653 5652 5651 5650 5649 5648 5649 5649 5646 5648 5650 5650 5651 5651 5651 5652 5653 5655 5656 5657 5658 5659 5660 5661 5662 5662 5663 5664 5665 5666 5667 5668 5669 5670 5671 5672 5674 5675 5677
5652 5651 5649 5648 5647 5646 5644 5643 5642 5640 5640 5640 5640 5638 5640 5642 5641 5641 5642 5643 5643 5644 5645 5646 5647 5648 5649 5650 5651 5652 5652 5653 5654 5655 5656 5656 5657 5658 5659 5660 5661 5662 5664 5665
5645 5644 5643 5641 5639 5638 5637 5636 5635 5633 5632 5632 5632 5630 5633 5633 5633 5633 5633 5634 5635 5635 5636 5637 5638 5639 5640 5641 5641 5642 5642 5643 5644 5644 5645 5646 5647 5647 5648 5649 5650 5650 5652 5653
5637 5638 5637 5634 5632 5631 5629 5628 5627 5625 5623 5623 5623 5623 5625 5625 5625 5625 5626 5626 5626 5627 5628 5629 5629 5630 5630 5631 5632 5632 5633 5633 5633 5634 5635 5635 5636 5637 5637 5638 5639 5639 5640 5641
5630 5630 5630 5628 5626 5624 5623 5621 5620 5618 5616 5614 5615 5615 5617 5617 5617 5617 5617 5617 5617 5618 5619 5620 5620 5620 5621 5621 5621 5622 5622 5622 5623 5623 5623 5624 5625 5626 5626 5627 5628 5628 5629 5630
5624 5623 5622 5621 5619 5618 5616 5615 5612 5610 5609 5608 5607 5610 5610 5609 5609 5609 5609 5609 5610 5610 5610 5610 5610 5611 5611 5611 5611 5611 5611 5612 5612 5612 5613 5613 5614 5615 5615 5616 5616 5617 5618 5619
5618 5616 5614 5614 5613 5611 5609 5607 5605 5604 5603 5601 5599 5603 5603 5601 5601 5601 5601 5601 5601 5601 5601 5601 5601 5601 5601 5601 5601 5601 5601 5601 5602 5602 5602 5602 5603 5604 5604 5605 5606 5606 5607 5608
5611 5609 5607 5606 5607 5605 5602 5600 5598 5597 5595 5593 5592 5595 5595 5594 5593 5592 5592 5592 5592 5592 5592 5591 5591 5591 5591 5591 5592 5592 5592 5591 5591 5591 5592 5592 5592 5593 5593 5594 5595 5595 5596 5597
5604 5603 5602 5600 5598 5596 5594 5593 5591 5589 5586 5585 5585 5586 5586 5585 5584 5584 5584 5584 5584 5583 5583 5582 5582 5582 5582 5582 5582 5582 5582 5582 5582 5582 5582 5581 5581 5582 5582 5583 5583 5584 5585 5585
5598 5596 5595 5593 5591 5588 5586 5584 5583 5581 5579 5578 5578 5577 5578 5577 5577 5576 5576 5576 5575 5575 5575 5574 5574 5574 5574 5574 5573 5573 5573 5572 5572 5572 5572 5571 5571 5571 5571 5572 5572 5573 5573 5573
5591 5589 5588 5586 5584 5580 5578 5577 5575 5573 5572 5571 5570 5570 5571 5570 5569 5568 5568 5568 5567 5567 5567 5566 5566 5566 5565 5565 5565 5564 5564 5563 5563 5562 5562 5562 5561 5561 5561 5561 5561 5562 5562 5562
5585 5583 5580 5578 5576 5573 5571 5571 5568 5566 5565 5564 5563 5564 5563 5563 5562 5561 5561 5560 5560 5559 5559 5558 5558 5558 5557 5557 5556 5556 5555 5554 5554 5553 5553 5552 5552 5551 5551 5551 5551 5551 5551 5551
5578 5576 5573 5571 5569 5566 5568 5564 5561 5559 5559 5558 5557 5556 5556 5556 5555 5554 5553 5552 5552 5552 5552 5551 5550 5550 5549 5548 5548 5547 5546 5545 5545 5544 5543 5543 5542 5542 5542 5542 5542 5542 5542 5541
5572 5569 5566 5564 5561 5559 5560 5558 5555 5553 5553 5552 5551 5550 5549 5548 5547 5547 5546 5545 5545 5544 5544 5543 5542 5542 5541 5540 5539 5538 5537 5536 5535 5535 5534 5534 5533 5533 5533 5533 5532 5532 5532 5531
5565 5563 5561 5558 5555 5553 5555 5552 5549 5549 5547 5547 5545 5544 5543 5542 5541 5541 5539 5538 5537 5537 5536 5535 5534 5533 5533 5532 5531 5530 5529 5528 5527 5527 5526 5525 5525 5525 5524 5524 5524 5523 5523 5522
5558 5556 5554 5551 5548 5548 5548 5546 5544 5544 5543 5540 5539 5537 5536 5535 5534 5533 5532 5531 5530 5529 5528 5527 5526 5526 5525 5524 5523 5522 5521 5521 5520 5519 5518 5518 5517 5517 5516 5516 5515 5515 5514 5513
5551 5549 5548 5545 5543 5545 5542 5540 5539 5537 5535 5534 5532 5531 5530 5529 5527 5526 5525 5524 5523 5522 5521 5520 5519 5518 5517 5517 5516 5515 5514 5513 5512 5512 5511 5510 5510 5510 5509 5508 5507 5506 5505 5505
5544 5543 5541 5540 5540 5537 5535 5533 5532 5531 5529 5528 5527 5525 5524 5522 5520 5519 5518 5517 5516 5515 5514 5513 5512 5511 5511 5510 5509 5508 5507 5506 5505 5505 5504 5503 5503 5502 5501 5501 5500 5499 5498 5497
5538 5536 5534 5532 5532 5530 5529 5527 5526 5525 5523 5522 5520 5519 5517 5515 5514 5513 5512 5511 5510 5508 5507 5506 5506 5505 5504 5503 5502 5501 5500 5499 5498 5497 5497 5496 5495 5495 5494 5493 5492 5492 5491 5490
5531 5529 5527 5526 5525 5524 5523 5521 5520 5518 5517 5516 5514 5512 5510 5509 5507 5506 5505 5504 5503 5502 5501 5500 5499 5499 5498 5496 5495 5494 5493 5492 5491 5490 5489 5489 5488 5487 5487 5486 5486 5485 5484 5483
5525 5524 5522 5520 5519 5518 5517 5516 5514 5513 5511 5510 5508 5507 5505 5503 5502 5500 5499 5498 5497 5496 5495 5494 5493 5492 5491 5490 5489 5488 5487 5485 5484 5483 5483 5482 5481 5481 5480 5480 5479 5478 5478 5477